Weather History for KMHE - October, 2011

Change the Weather History Date:

Monday, October 17, 2011

  Actual Average Record
Temperature  
Mean Temperature 47 °F 49 °F  
Max Temperature 57 °F 62 °F 87 °F (1910)
Min Temperature 36 °F 37 °F 17 °F (1976)
Degree Days  
Heating Degree Days 18 16  
Month to date heating degree days 84 219  
Since 1 July heating degree days 259 377  
Cooling Degree Days 0 0  
Month to date cooling degree days 37 7  
Year to date cooling degree days 994 824  
Moisture  
Dew Point 28 °F    
Average Humidity 51    
Maximum Humidity 73    
Minimum Humidity 27    
Precipitation  
Precipitation 0.00 in 0.05 in 1.54 in (1996)
Month to date precipitation 2.19 1.05  
Year to date precipitation 19.11 19.72  
Snow  
Snow 0.00 in - T in (2006)
Month to date snowfall 0.0  
Since 1 July snowfall 0.0  
Since 1 September snowfall 0.0  
Snow Depth 0.00 in    
Sea Level Pressure  
Sea Level Pressure 30.06 in    
Wind  
Wind Speed 9 mph (WNW)    
Max Wind Speed 21 mph    
Max Gust Speed 33 mph    
Visibility 10 miles    
Events      
T = Trace of Precipitation, MM = Missing Value Source: NWS Daily Summary

Daily Weather History Graph

Daily Weather History Graph

Search for Another Location

Airport or City:

Trip Planner

Search our weather history database for the weather conditions in past years. The results will help you decide how hot, cold, wet, or windy it might be!

Date:

Astronomy

Oct. 17, 2011 Rise Set
Actual Time 7:48 AM CDT 6:45 PM CDT
Civil Twilight 7:19 AM CDT 7:14 PM CDT
Nautical Twilight 6:46 AM CDT 7:47 PM CDT
Astronomical Twilight 6:12 AM CDT 8:21 PM CDT
Moon 10:19 PM CDT (10/17) 1:04 PM CDT (10/17)
Length of Visible Light 11h 55m
Length of Day
10h 56m
Waning Gibbous, 74% of the Moon is Illuminated
Oct 17
Waning Gibbous
Oct 19
Last Quarter
Oct 26
New
Nov 2
First Quarter
Nov 10
Full

Hourly Weather History & Observations

Time (CDT) Temp. Windchill Dew Point Humidity Pressure Visibility Wind Dir Wind Speed Gust Speed Precip Events Conditions
12:53 AM 37.0 °F 34.5 °F 27.0 °F 67% 30.05 in 10.0 mi WSW 3.5 mph - N/A   Clear
1:53 AM 37.0 °F 31.6 °F 28.0 °F 70% 30.04 in 10.0 mi WSW 6.9 mph - N/A   Clear
2:53 AM 37.0 °F 32.4 °F 28.0 °F 70% 30.04 in 10.0 mi West 5.8 mph - N/A   Clear
3:53 AM 37.9 °F 34.4 °F 28.9 °F 70% 30.04 in 10.0 mi West 4.6 mph - N/A   Clear
5:53 AM 39.0 °F - 30.9 °F 73% 30.03 in 10.0 mi Calm Calm - N/A   Overcast
6:53 AM 41.0 °F 38.0 °F 30.9 °F 67% 30.03 in 10.0 mi West 4.6 mph - N/A   Mostly Cloudy
7:53 AM 41.0 °F 37.1 °F 32.0 °F 70% 30.04 in 10.0 mi West 5.8 mph - N/A   Clear
8:53 AM 44.1 °F 39.5 °F 33.1 °F 65% 30.06 in 10.0 mi WNW 8.1 mph - N/A   Partly Cloudy
9:53 AM 46.9 °F - 34.0 °F 61% 30.08 in 10.0 mi NW 6.9 mph - N/A   Clear
10:53 AM 48.9 °F - 30.0 °F 48% 30.09 in 10.0 mi NW 9.2 mph 25.3 mph N/A   Clear
11:53 AM 54.0 °F - 28.9 °F 38% 30.09 in 10.0 mi NNW 11.5 mph 20.7 mph N/A   Clear
12:53 PM 54.0 °F - 25.0 °F 33% 30.09 in 10.0 mi NNW 12.7 mph 17.3 mph N/A   Clear
1:53 PM 55.0 °F - 25.0 °F 31% 30.08 in 10.0 mi NNW 16.1 mph - N/A   Clear
2:53 PM 55.9 °F - 25.0 °F 30% 30.06 in 10.0 mi NNW 19.6 mph 25.3 mph N/A   Clear
3:53 PM 57.0 °F - 23.0 °F 27% 30.05 in 10.0 mi NNW 16.1 mph 23.0 mph N/A   Clear
4:53 PM 57.0 °F - 25.0 °F 29% 30.04 in 10.0 mi WNW 11.5 mph - N/A   Clear
5:53 PM 55.9 °F - 25.0 °F 30% 30.04 in 10.0 mi NW 11.5 mph - N/A   Clear
6:53 PM 52.0 °F - 27.0 °F 38% 30.03 in 10.0 mi WNW 9.2 mph - N/A   Clear
8:53 PM 46.9 °F - 27.0 °F 46% 30.05 in 10.0 mi WNW 8.1 mph - N/A   Clear
9:53 PM 44.1 °F 39.0 °F 27.0 °F 51% 30.06 in 10.0 mi NW 9.2 mph - N/A   Clear
10:53 PM 42.1 °F 36.6 °F 26.1 °F 53% 30.06 in 10.0 mi NW 9.2 mph - N/A   Clear
11:53 PM 39.0 °F 32.8 °F 27.0 °F 62% 30.07 in 10.0 mi NW 9.2 mph - N/A   Clear